Date String (YYYY-MM-DD hh:mm:ss) UTC,Instrument flags,Ambient pressure (hPa),Sample flow (lpm),Bypass flow (lpm),Sample temperature (°C),Ambient temperature (°C),ASC tube jacket temperature (°C),LED temperature (°C),Box temperature (°C),Sample RH (%),Mass concentration (μg/m³),Mass concentration (μg/m³)
DateTimeUTC,F1_M11,P_M11,Q1_M11,Q2_M11,T1_M11,T2_M11,T3_M11,T4_M11,T5_M11,U1_M11,X0_M11,X2_M11
2021-08-18 18:00:00,,0824.7,5.00,0.00,29.1,27.8,00.0,38.0,30.9,22.1,0024.07,0016.38
2021-08-18 18:01:00,,0824.7,5.00,0.00,29.1,28.1,00.0,38.0,31.0,22.4,0022.73,0016.42
2021-08-18 18:02:00,,0824.7,5.01,0.00,29.2,27.6,00.0,38.1,30.9,23.0,0022.00,0016.46
2021-08-18 18:03:00,,0824.7,5.00,0.00,29.0,26.2,00.0,38.0,30.5,23.4,0022.93,0016.60
2021-08-18 18:04:00,,0824.6,5.00,0.00,28.9,25.9,00.0,38.0,30.4,24.0,0023.58,0016.71
2021-08-18 18:05:00,,0824.7,5.01,0.00,28.9,26.4,00.0,38.0,30.6,24.0,0023.85,0016.88
2021-08-18 18:06:00,,0824.6,4.99,0.00,28.9,26.8,00.0,38.0,30.7,24.3,0023.90,0016.99
2021-08-18 18:07:00,,0824.6,5.01,0.00,29.0,27.2,00.0,38.0,30.7,24.2,0024.29,0017.09
2021-08-18 18:08:00,,0824.7,5.00,0.00,29.0,27.5,00.0,38.0,30.8,24.0,0024.79,0017.21
2021-08-18 18:09:00,,0824.6,5.00,0.00,29.1,27.9,00.0,38.0,30.9,24.4,0025.02,0017.31
2021-08-18 18:10:00,,0824.7,4.99,0.00,29.1,27.4,00.0,38.0,30.8,24.6,0025.35,0017.39
2021-08-18 18:11:00,,0824.6,5.01,0.00,29.0,26.0,00.0,38.0,30.3,24.5,0025.82,0017.40
2021-08-18 18:12:00,,0824.6,4.99,0.00,28.9,25.8,00.0,38.0,30.3,24.9,0025.82,0017.45
2021-08-18 18:13:00,,0824.7,5.00,0.00,28.8,26.2,00.0,38.0,30.4,25.3,0026.96,0017.52
2021-08-18 18:14:00,,0824.8,5.00,0.00,28.8,26.6,00.0,38.0,30.5,25.3,0027.77,0017.57
2021-08-18 18:15:00,,0824.7,5.00,0.00,28.9,27.1,00.0,38.0,30.7,25.2,0027.13,0017.55
2021-08-18 18:16:00,,0824.9,5.01,0.00,28.9,27.4,00.0,38.0,30.8,26.0,0027.85,0017.51
2021-08-18 18:17:00,,0824.7,5.00,0.00,29.0,27.7,00.0,38.0,30.9,25.4,0028.56,0017.48
2021-08-18 18:18:00,,0824.9,4.99,0.00,29.1,27.9,00.0,38.0,30.9,25.2,0028.80,0017.55
2021-08-18 18:19:00,,0824.5,5.00,0.00,29.0,26.7,00.0,38.0,30.6,25.3,0029.15,0017.57
2021-08-18 18:20:00,,0824.7,4.99,0.00,28.9,25.7,00.0,38.0,30.2,24.2,0028.97,0017.57
2021-08-18 18:21:00,,0824.9,5.00,0.00,28.8,26.0,00.0,38.0,30.3,24.4,0029.34,0017.55
2021-08-18 18:22:00,,0824.7,5.01,0.00,28.8,26.4,00.0,37.9,30.5,24.7,0029.48,0017.61
2021-08-18 18:23:00,,0824.5,5.00,0.00,28.8,26.8,00.0,37.9,30.6,25.3,0029.61,0017.66
2021-08-18 18:24:00,,0824.9,5.00,0.00,28.9,27.2,00.0,37.9,30.7,25.2,0028.94,0017.68
2021-08-18 18:25:00,,0824.6,4.99,0.00,28.9,27.6,00.0,37.9,30.8,24.6,0027.26,0017.62
2021-08-18 18:26:00,,0824.7,5.01,0.00,29.0,27.8,00.0,38.0,30.9,24.5,0027.51,0017.62
2021-08-18 18:27:00,,0824.6,5.00,0.00,29.0,26.7,00.0,38.0,30.5,24.6,0028.52,0017.66
2021-08-18 18:28:00,,0824.5,5.01,0.00,28.8,25.6,00.0,37.9,30.2,25.4,0028.23,0017.70
2021-08-18 18:29:00,,0824.5,4.99,0.00,28.8,25.9,00.0,37.9,30.3,25.3,0027.38,0017.55
2021-08-18 18:30:00,,0824.4,4.99,0.00,28.8,26.3,00.0,37.9,30.4,25.0,0026.54,0017.50
2021-08-18 18:31:00,,0824.6,5.00,0.00,28.8,26.8,00.0,37.9,30.6,25.4,0026.64,0017.46
2021-08-18 18:32:00,,0824.5,5.00,0.00,28.9,27.2,00.0,37.9,30.7,25.0,0026.97,0017.41
2021-08-18 18:33:00,,0824.4,4.99,0.00,28.9,27.6,00.0,37.9,30.8,24.9,0026.86,0017.34
2021-08-18 18:34:00,,0824.6,4.99,0.00,29.0,27.7,00.0,37.9,30.8,25.1,0026.81,0017.24
2021-08-18 18:35:00,,0824.4,5.01,0.00,28.9,26.6,00.0,37.9,30.5,24.6,0026.76,0017.15
2021-08-18 18:36:00,,0824.5,4.99,0.00,28.8,25.6,00.0,37.9,30.2,25.8,0026.62,0017.11
2021-08-18 18:37:00,,0824.4,5.00,0.00,28.8,25.9,00.0,37.9,30.3,25.2,0026.21,0017.07
2021-08-18 18:38:00,,0824.4,5.00,0.00,28.7,26.3,00.0,37.9,30.4,25.7,0024.15,0016.97
2021-08-18 18:39:00,,0824.5,5.00,0.00,28.8,26.7,00.0,37.8,30.5,25.5,0023.78,0016.85
2021-08-18 18:40:00,,0824.5,5.01,0.00,28.8,27.1,00.0,37.8,30.6,24.5,0024.74,0016.90
2021-08-18 18:41:00,,0824.4,4.99,0.00,28.9,27.5,00.0,37.9,30.7,23.8,0025.71,0017.02
2021-08-18 18:42:00,,0824.4,5.00,0.00,28.9,27.7,00.0,37.9,30.8,24.4,0026.60,0017.08
2021-08-18 18:43:00,,0824.5,4.99,0.00,28.9,26.6,00.0,37.9,30.5,23.7,0025.97,0017.14
2021-08-18 18:44:00,,0824.4,5.01,0.00,28.8,25.5,00.0,37.8,30.1,24.0,0025.57,0017.21
2021-08-18 18:45:00,,0824.5,5.00,0.00,28.7,25.9,00.0,37.8,30.2,24.3,0025.94,0017.33
2021-08-18 18:46:00,,0824.5,4.99,0.00,28.7,26.3,00.0,37.8,30.3,24.5,0026.04,0017.44
2021-08-18 18:47:00,,0824.4,5.00,0.00,28.7,26.7,00.0,37.8,30.5,24.5,0026.91,0017.56
2021-08-18 18:48:00,,0824.4,4.99,0.00,28.8,27.1,00.0,37.8,30.6,24.4,0027.90,0017.67
2021-08-18 18:49:00,,0824.3,4.99,0.00,28.8,27.5,00.0,37.8,30.7,24.4,0028.21,0017.78
2021-08-18 18:50:00,,0824.4,5.02,0.00,28.9,27.8,00.0,37.8,30.8,24.5,0028.10,0017.89
2021-08-18 18:51:00,,0824.3,4.99,0.00,29.0,28.0,00.0,37.9,30.9,24.8,0027.38,0017.93
2021-08-18 18:52:00,,0824.3,5.00,0.00,29.0,26.9,00.0,37.9,30.6,25.1,0026.51,0017.84
2021-08-18 18:53:00,,0824.3,5.01,0.00,28.8,25.7,00.0,37.8,30.2,24.7,0025.69,0017.84
2021-08-18 18:54:00,,0824.4,5.00,0.00,28.7,25.9,00.0,37.8,30.3,25.0,0025.82,0017.94
2021-08-18 18:55:00,,0824.3,5.00,0.00,28.7,26.4,00.0,37.8,30.4,24.8,0025.93,0017.97
2021-08-18 18:56:00,,0824.3,5.00,0.00,28.8,26.8,00.0,37.8,30.5,24.6,0026.12,0017.97
2021-08-18 18:57:00,,0824.4,4.99,0.00,28.8,27.2,00.0,37.8,30.6,25.0,0027.10,0018.00
2021-08-18 18:58:00,,0824.4,5.01,0.00,28.9,27.6,00.0,37.8,30.8,24.4,0027.71,0018.05
2021-08-18 18:59:00,,0824.3,4.98,0.00,29.0,27.8,00.0,37.9,30.8,24.2,0027.50,0018.08
